TimePDT,TemperatureF,Dew PointF,Humidity,Sea Level PressureIn,VisibilityMPH,Wind Direction,Wind SpeedMPH,Gust SpeedMPH,PrecipitationIn,Events,Conditions,WindDirDegrees,DateUTC
12:56 AM,53.1,44.1,71,30.15,10.0,Variable,4.6,-,N/A,,Clear,0,2013-09-06 07:56:00
1:56 AM,53.1,44.1,71,30.14,10.0,Calm,Calm,-,N/A,,Clear,0,2013-09-06 08:56:00
2:56 AM,51.1,44.1,77,30.14,10.0,Calm,Calm,-,N/A,,Clear,0,2013-09-06 09:56:00
3:56 AM,50.0,44.1,80,30.15,10.0,Calm,Calm,-,N/A,,Clear,0,2013-09-06 10:56:00
4:56 AM,46.9,43.0,86,30.19,10.0,Calm,Calm,-,N/A,,Clear,0,2013-09-06 11:56:00
5:56 AM,46.9,43.0,86,30.19,10.0,Variable,3.5,-,N/A,,Clear,0,2013-09-06 12:56:00
6:56 AM,48.9,44.1,83,30.20,10.0,Calm,Calm,-,N/A,,Clear,0,2013-09-06 13:56:00
7:56 AM,53.1,46.0,77,30.21,10.0,Calm,Calm,-,N/A,,Clear,0,2013-09-06 14:56:00
8:56 AM,55.9,46.0,69,30.21,10.0,NNE,8.1,-,N/A,,Clear,20,2013-09-06 15:56:00
9:56 AM,60.1,45.0,57,30.20,10.0,Variable,4.6,-,N/A,,Clear,0,2013-09-06 16:56:00
10:56 AM,64.0,45.0,50,30.20,10.0,Variable,5.8,-,N/A,,Clear,0,2013-09-06 17:56:00
11:56 AM,66.9,45.0,45,30.19,10.0,Variable,6.9,-,N/A,,Clear,0,2013-09-06 18:56:00
12:56 PM,71.1,43.0,36,30.16,10.0,Variable,3.5,-,N/A,,Clear,0,2013-09-06 19:56:00
1:56 PM,75.0,45.0,34,30.13,10.0,Variable,6.9,-,N/A,,Clear,0,2013-09-06 20:56:00
2:56 PM,75.0,45.0,34,30.10,10.0,Variable,5.8,-,N/A,,Clear,0,2013-09-06 21:56:00
3:56 PM,75.9,45.0,33,30.08,10.0,Variable,5.8,-,N/A,,Clear,0,2013-09-06 22:56:00
4:56 PM,73.9,45.0,35,30.08,10.0,Variable,4.6,-,N/A,,Clear,0,2013-09-06 23:56:00
5:56 PM,73.0,44.1,35,30.06,10.0,Variable,5.8,-,N/A,,Clear,0,2013-09-07 00:56:00
6:56 PM,71.1,44.1,38,30.06,10.0,Variable,4.6,-,N/A,,Clear,0,2013-09-07 01:56:00
7:56 PM,66.9,43.0,42,30.06,10.0,Variable,3.5,-,N/A,,Clear,0,2013-09-07 02:56:00
8:56 PM,64.9,42.1,43,30.07,10.0,Variable,5.8,-,N/A,,Clear,0,2013-09-07 03:56:00
9:56 PM,63.0,39.0,41,30.08,10.0,NNE,4.6,-,N/A,,Clear,20,2013-09-07 04:56:00
10:56 PM,62.1,39.0,43,30.07,10.0,Variable,4.6,-,N/A,,Clear,0,2013-09-07 05:56:00
11:56 PM,61.0,39.9,46,30.07,10.0,Calm,Calm,-,N/A,,Clear,0,2013-09-07 06:56:00